Princess Juliana International, Saint Maartin

1:16 AM AST on August 30, 2015 (GMT -0400)
Princess Juliana International | | Change Station
CLOSE
Current Station
Airport
Location: Juliana Airport,
Elevation: 13 ft
Nearby Weather Stations

Elev 13 ft 18.04 °N, 63.11 °W | Updated 1 hour ago

Scattered Clouds
Scattered Clouds
82 °F
Feels Like 91 °F
N
14
Wind Variable Wind from East

Today
High -- | Low -- °F
--% Chance of Precip.
Yesterday
High -- | Low -- °F
Precip. -- in
5:57 AM 6:28 PM
Full, 100% visible
Pressure 30.01 in
Visibility 6.2 miles
Clouds Scattered Clouds 1800 ft
Heat Index 91 °F
Dew Point 77 °F
Humidity 84%
Rainfall 0.00 in
Snow Depth Not available.
UV 0 out of 12
Pollen Not available.
Air Quality Not available.
Flu Activity Not available.
METAR TNCM 300400Z 08012KT 9999 SCT018TCU 28/25 Q1016 A3000 TCU E
Pressure 30.01 in
Visibility 6.2 miles
Clouds Scattered Clouds 1800 ft
Heat Index 91 °F
Dew Point 77 °F
Humidity 84%
Rainfall 0.00 in
Snow Depth Not available.
UV 0 out of 12
Pollen Not available.
Air Quality Not available.
Flu Activity Not available.
METAR TNCM 300400Z 08012KT 9999 SCT018TCU 28/25 Q1016 A3000 TCU E

10-Day Weather Forecast

×

Almanac

Astronomy

Aug. 30, 2015 Rise Set
Actual Time
Civil Twilight
Nautical Twilight
Astronomical Twilight
Moon
Length of Visible Light
Length of Day
Tomorrow will be .
, % of the Moon is Illuminated

Today's Extremes

Country Highs Country Lows

Community

WunderPhotos

Upload Photos

1,850,895 photos uploaded!

WunderBlogs® & News

Nearby

Air Quality

  Air Quality AQ Index Pollutant
Not available.

Snow Depth

Station Depth Elevation

Earthquake Activity

City Distance Mag. Time & Date
Minimum magnitude displayed is 2.5.

Coastal Water Temperatures

Place Temperature

Stations

Nearby Weather Stations

Station Location Temp. Windchill Dew Point Humidity Wind Precip. Elev Updated Type